Time,TemperatureF,DewpointF,PressureIn,WindDirection,WindDirectionDegrees,WindSpeedMPH,WindSpeedGustMPH,Humidity,HourlyPrecipIn,Conditions,Clouds,dailyrainin,SoftwareType,DateUTC
2013-07-16 00:05:00,71.6,71.6,30.28,North,360,0.0,0.0,100,0.00,,,0.00,Wunderground v.1.15,2013-07-16 04:05:00,
2013-07-16 00:15:00,71.3,71.3,30.28,North,360,0.0,0.0,100,0.00,,,0.00,Wunderground v.1.15,2013-07-16 04:15:00,
2013-07-16 00:20:00,71.3,71.3,30.28,North,32767,0.0,0.0,100,0.00,,,0.00,Wunderground v.1.15,2013-07-16 04:20:00,
2013-07-16 00:25:00,71.3,71.3,30.28,North,32767,0.0,0.0,100,0.00,,,0.00,Wunderground v.1.15,2013-07-16 04:25:00,
2013-07-16 00:30:00,71.1,71.1,30.28,North,360,0.0,0.0,100,0.00,,,0.00,Wunderground v.1.15,2013-07-16 04:30:00,
2013-07-16 00:35:00,71.1,71.1,30.28,North,32767,0.0,0.0,100,0.00,,,0.00,Wunderground v.1.15,2013-07-16 04:35:00,
2013-07-16 00:40:00,71.0,71.0,30.28,North,360,0.0,0.0,100,0.00,,,0.00,Wunderground v.1.15,2013-07-16 04:40:00,
2013-07-16 00:50:00,70.9,70.9,30.28,North,360,0.0,0.0,100,0.00,,,0.00,Wunderground v.1.15,2013-07-16 04:50:00,
2013-07-16 01:00:00,70.8,70.8,30.28,North,360,0.0,0.0,100,0.00,,,0.00,Wunderground v.1.15,2013-07-16 05:00:00,
2013-07-16 01:10:00,70.7,70.7,30.28,North,32767,0.0,0.0,100,0.00,,,0.00,Wunderground v.1.15,2013-07-16 05:10:00,
2013-07-16 01:15:00,70.6,70.6,30.28,North,32767,0.0,0.0,100,0.00,,,0.00,Wunderground v.1.15,2013-07-16 05:15:00,
2013-07-16 01:20:00,70.6,70.6,30.28,North,32767,0.0,0.0,100,0.00,,,0.00,Wunderground v.1.15,2013-07-16 05:20:00,
2013-07-16 01:30:00,70.4,70.4,30.28,North,32767,0.0,0.0,100,0.00,,,0.00,Wunderground v.1.15,2013-07-16 05:30:00,
2013-07-16 01:40:00,70.3,70.3,30.28,North,32767,0.0,0.0,100,0.00,,,0.00,Wunderground v.1.15,2013-07-16 05:40:00,
2013-07-16 01:49:00,70.1,70.1,30.28,North,32767,0.0,0.0,100,0.00,,,0.00,Wunderground v.1.15,2013-07-16 05:49:00,
2013-07-16 01:55:00,70.1,70.1,30.28,North,32767,0.0,0.0,100,0.00,,,0.00,Wunderground v.1.15,2013-07-16 05:55:00,
2013-07-16 02:00:00,70.0,70.0,30.28,North,32767,0.0,0.0,100,0.00,,,0.00,Wunderground v.1.15,2013-07-16 06:00:00,
2013-07-16 02:10:00,69.8,69.8,30.28,North,32767,0.0,0.0,100,0.00,,,0.00,Wunderground v.1.15,2013-07-16 06:10:00,
2013-07-16 02:20:00,69.6,69.6,30.27,North,32767,0.0,0.0,100,0.00,,,0.00,Wunderground v.1.15,2013-07-16 06:20:00,
2013-07-16 02:25:00,69.5,69.5,30.27,North,360,0.0,0.0,100,0.00,,,0.00,Wunderground v.1.15,2013-07-16 06:25:00,
2013-07-16 02:30:00,69.5,69.5,30.27,North,32767,0.0,0.0,100,0.00,,,0.00,Wunderground v.1.15,2013-07-16 06:30:00,
2013-07-16 02:40:00,69.4,69.4,30.27,North,32767,0.0,0.0,100,0.00,,,0.00,Wunderground v.1.15,2013-07-16 06:40:00,
2013-07-16 02:50:00,69.4,69.4,30.27,North,32767,0.0,0.0,100,0.00,,,0.00,Wunderground v.1.15,2013-07-16 06:50:00,
2013-07-16 03:00:00,69.4,69.4,30.27,North,32767,0.0,0.0,100,0.00,,,0.00,Wunderground v.1.15,2013-07-16 07:00:00,
2013-07-16 03:05:00,69.5,69.5,30.26,North,360,0.0,0.0,100,0.00,,,0.00,Wunderground v.1.15,2013-07-16 07:05:00,
2013-07-16 03:10:00,69.5,69.5,30.26,North,32767,0.0,0.0,100,0.00,,,0.00,Wunderground v.1.15,2013-07-16 07:10:00,
2013-07-16 03:20:00,69.5,69.5,30.26,North,32767,0.0,0.0,100,0.00,,,0.00,Wunderground v.1.15,2013-07-16 07:20:00,
2013-07-16 03:30:00,69.4,69.4,30.26,North,32767,0.0,0.0,100,0.00,,,0.00,Wunderground v.1.15,2013-07-16 07:30:00,
2013-07-16 03:35:00,69.4,69.4,30.27,North,360,0.0,0.0,100,0.00,,,0.00,Wunderground v.1.15,2013-07-16 07:35:00,
2013-07-16 03:45:00,69.3,69.3,30.27,North,32767,0.0,0.0,100,0.00,,,0.00,Wunderground v.1.15,2013-07-16 07:45:00,
2013-07-16 03:50:00,69.3,69.3,30.26,North,360,0.0,0.0,100,0.00,,,0.00,Wunderground v.1.15,2013-07-16 07:50:00,
2013-07-16 04:00:00,69.2,69.2,30.26,North,32767,0.0,0.0,100,0.00,,,0.00,Wunderground v.1.15,2013-07-16 08:00:00,
2013-07-16 04:05:00,69.1,69.1,30.26,North,32767,0.0,0.0,100,0.00,,,0.00,Wunderground v.1.15,2013-07-16 08:05:00,
2013-07-16 04:10:00,69.1,69.1,30.26,North,360,0.0,0.0,100,0.00,,,0.00,Wunderground v.1.15,2013-07-16 08:10:00,
2013-07-16 04:20:00,69.0,69.0,30.26,North,32767,0.0,0.0,100,0.00,,,0.00,Wunderground v.1.15,2013-07-16 08:20:00,
2013-07-16 04:30:00,68.8,68.8,30.26,North,360,0.0,0.0,100,0.00,,,0.00,Wunderground v.1.15,2013-07-16 08:30:00,
2013-07-16 04:35:00,68.8,68.8,30.26,North,32767,0.0,0.0,100,0.00,,,0.00,Wunderground v.1.15,2013-07-16 08:35:00,
2013-07-16 04:40:00,68.8,68.8,30.26,North,32767,0.0,0.0,100,0.00,,,0.00,Wunderground v.1.15,2013-07-16 08:40:00,
2013-07-16 04:50:00,68.7,68.7,30.26,North,32767,0.0,0.0,100,0.00,,,0.00,Wunderground v.1.15,2013-07-16 08:50:00,
2013-07-16 05:00:00,68.6,68.6,30.26,North,32767,0.0,0.0,100,0.00,,,0.00,Wunderground v.1.15,2013-07-16 09:00:00,
2013-07-16 05:05:00,68.6,68.6,30.26,North,360,0.0,0.0,100,0.00,,,0.00,Wunderground v.1.15,2013-07-16 09:05:00,
2013-07-16 05:15:00,68.5,68.5,30.26,North,360,0.0,0.0,100,0.00,,,0.00,Wunderground v.1.15,2013-07-16 09:15:00,
2013-07-16 05:20:00,68.5,68.5,30.26,North,32767,0.0,0.0,100,0.00,,,0.00,Wunderground v.1.15,2013-07-16 09:20:00,
2013-07-16 05:30:00,68.3,68.3,30.26,North,32767,0.0,0.0,100,0.00,,,0.00,Wunderground v.1.15,2013-07-16 09:30:00,
2013-07-16 05:39:00,68.3,68.3,30.27,North,32767,0.0,0.0,100,0.00,,,0.00,Wunderground v.1.15,2013-07-16 09:39:00,
2013-07-16 05:45:00,68.2,68.2,30.27,North,360,0.0,0.0,100,0.00,,,0.00,Wunderground v.1.15,2013-07-16 09:45:00,
2013-07-16 05:50:00,68.1,68.1,30.27,North,360,0.0,0.0,100,0.00,,,0.00,Wunderground v.1.15,2013-07-16 09:50:00,
2013-07-16 06:00:00,68.0,68.0,30.27,North,360,0.0,0.0,100,0.00,,,0.00,Wunderground v.1.15,2013-07-16 10:00:00,
2013-07-16 06:10:00,67.9,67.9,30.28,North,360,0.0,0.0,100,0.00,,,0.00,Wunderground v.1.15,2013-07-16 10:10:00,
2013-07-16 06:15:00,67.9,67.9,30.28,North,360,0.0,0.0,100,0.00,,,0.00,Wunderground v.1.15,2013-07-16 10:15:00,
2013-07-16 06:25:00,67.8,67.8,30.28,North,32767,0.0,0.0,100,0.00,,,0.00,Wunderground v.1.15,2013-07-16 10:25:00,
2013-07-16 06:30:00,67.7,67.7,30.28,North,360,0.0,0.0,100,0.00,,,0.00,Wunderground v.1.15,2013-07-16 10:30:00,
2013-07-16 06:40:00,67.7,67.7,30.28,North,360,0.0,0.0,100,0.00,,,0.00,Wunderground v.1.15,2013-07-16 10:40:00,
2013-07-16 06:50:00,67.6,67.6,30.28,North,360,0.0,0.0,100,0.00,,,0.00,Wunderground v.1.15,2013-07-16 10:50:00,
2013-07-16 06:55:00,67.7,67.7,30.28,North,32767,0.0,0.0,100,0.00,,,0.00,Wunderground v.1.15,2013-07-16 10:55:00,
2013-07-16 07:05:00,67.8,67.8,30.28,North,32767,0.0,0.0,100,0.00,,,0.00,Wunderground v.1.15,2013-07-16 11:05:00,
2013-07-16 07:10:00,67.9,67.9,30.28,North,32767,0.0,0.0,100,0.00,,,0.00,Wunderground v.1.15,2013-07-16 11:10:00,
2013-07-16 07:20:00,68.1,68.1,30.29,North,360,0.0,0.0,100,0.00,,,0.00,Wunderground v.1.15,2013-07-16 11:20:00,
2013-07-16 07:29:00,68.4,68.4,30.29,North,32767,0.0,0.0,100,0.00,,,0.00,Wunderground v.1.15,2013-07-16 11:29:00,
2013-07-16 07:35:00,68.6,68.6,30.29,North,32767,0.0,0.0,100,0.00,,,0.00,Wunderground v.1.15,2013-07-16 11:35:00,
2013-07-16 07:45:00,68.9,68.9,30.29,North,32767,0.0,0.0,100,0.00,,,0.00,Wunderground v.1.15,2013-07-16 11:45:00,
2013-07-16 07:50:00,69.1,69.1,30.30,North,32767,0.0,0.0,100,0.00,,,0.00,Wunderground v.1.15,2013-07-16 11:50:00,
2013-07-16 08:00:00,69.5,69.5,30.30,North,32767,0.0,0.0,100,0.00,,,0.00,Wunderground v.1.15,2013-07-16 12:00:00,
2013-07-16 08:05:00,69.8,69.8,30.29,North,32767,0.0,0.0,100,0.00,,,0.00,Wunderground v.1.15,2013-07-16 12:05:00,
2013-07-16 08:10:00,70.1,70.1,30.29,North,360,0.0,0.0,100,0.00,,,0.00,Wunderground v.1.15,2013-07-16 12:10:00,
2013-07-16 08:20:00,70.6,70.6,30.30,North,360,0.0,0.0,100,0.00,,,0.00,Wunderground v.1.15,2013-07-16 12:20:00,
2013-07-16 08:25:00,70.8,70.8,30.30,North,360,0.0,0.0,100,0.00,,,0.00,Wunderground v.1.15,2013-07-16 12:25:00,
2013-07-16 08:30:00,71.0,71.0,30.30,North,32767,0.0,0.0,100,0.00,,,0.00,Wunderground v.1.15,2013-07-16 12:30:00,
2013-07-16 08:40:00,71.3,71.3,30.31,North,32767,0.0,0.0,100,0.00,,,0.00,Wunderground v.1.15,2013-07-16 12:40:00,
2013-07-16 08:50:00,71.7,71.7,30.31,North,32767,0.0,0.0,100,0.00,,,0.00,Wunderground v.1.15,2013-07-16 12:50:00,
2013-07-16 08:55:00,71.9,71.9,30.31,North,32767,0.0,0.0,100,0.00,,,0.00,Wunderground v.1.15,2013-07-16 12:55:00,
2013-07-16 09:00:00,72.1,72.1,30.31,North,32767,0.0,0.0,100,0.00,,,0.00,Wunderground v.1.15,2013-07-16 13:00:00,
2013-07-16 09:10:00,72.4,72.4,30.31,North,360,0.0,0.0,100,0.00,,,0.00,Wunderground v.1.15,2013-07-16 13:10:00,
2013-07-16 09:20:00,72.8,72.8,30.31,North,360,0.0,0.0,100,0.00,,,0.00,Wunderground v.1.15,2013-07-16 13:20:00,
2013-07-16 09:30:00,73.1,73.1,30.31,North,360,0.0,0.0,100,0.00,,,0.00,Wunderground v.1.15,2013-07-16 13:30:00,
2013-07-16 09:40:00,73.5,73.5,30.31,North,360,0.0,0.0,100,0.00,,,0.00,Wunderground v.1.15,2013-07-16 13:40:00,
2013-07-16 09:50:00,74.1,74.1,30.31,North,32767,0.0,0.0,100,0.00,,,0.00,Wunderground v.1.15,2013-07-16 13:50:00,
2013-07-16 10:00:00,74.5,74.5,30.31,North,32767,0.0,0.0,100,0.00,,,0.00,Wunderground v.1.15,2013-07-16 14:00:00,
2013-07-16 10:10:00,74.9,74.9,30.31,North,360,0.0,0.0,100,0.00,,,0.00,Wunderground v.1.15,2013-07-16 14:10:00,
2013-07-16 10:15:00,75.0,75.0,30.31,North,360,0.0,0.0,100,0.00,,,0.00,Wunderground v.1.15,2013-07-16 14:15:00,
2013-07-16 10:25:00,75.4,75.4,30.31,North,32767,0.0,0.0,100,0.00,,,0.00,Wunderground v.1.15,2013-07-16 14:25:00,
2013-07-16 10:30:00,75.7,75.7,30.31,North,32767,0.0,0.0,100,0.00,,,0.00,Wunderground v.1.15,2013-07-16 14:30:00,
2013-07-16 10:40:00,76.2,76.2,30.31,North,360,0.0,0.0,100,0.00,,,0.00,Wunderground v.1.15,2013-07-16 14:40:00,
2013-07-16 10:50:00,76.4,75.8,30.31,North,360,0.0,0.0,98,0.00,,,0.00,Wunderground v.1.15,2013-07-16 14:50:00,
2013-07-16 10:55:00,76.6,76.0,30.31,North,360,0.0,0.0,98,0.00,,,0.00,Wunderground v.1.15,2013-07-16 14:55:00,
2013-07-16 11:05:00,77.1,76.2,30.30,North,360,0.0,0.0,97,0.00,,,0.00,Wunderground v.1.15,2013-07-16 15:05:00,
2013-07-16 11:10:00,77.4,75.9,30.30,North,360,0.0,0.0,95,0.00,,,0.00,Wunderground v.1.15,2013-07-16 15:10:00,
2013-07-16 11:20:00,77.8,76.6,30.30,North,360,0.0,0.0,96,0.00,,,0.00,Wunderground v.1.15,2013-07-16 15:20:00,
2013-07-16 11:30:00,78.0,76.1,30.30,North,360,0.0,0.0,94,0.00,,,0.00,Wunderground v.1.15,2013-07-16 15:30:00,
2013-07-16 11:40:00,78.2,76.0,30.30,North,360,0.0,0.0,93,0.00,,,0.00,Wunderground v.1.15,2013-07-16 15:40:00,
2013-07-16 11:50:00,78.6,76.1,30.30,North,360,0.0,0.0,92,0.00,,,0.00,Wunderground v.1.15,2013-07-16 15:50:00,
2013-07-16 12:00:00,78.8,76.3,30.30,North,360,0.0,0.0,92,0.00,,,0.00,Wunderground v.1.15,2013-07-16 16:00:00,
2013-07-16 12:10:00,79.1,75.6,30.30,North,360,0.0,0.0,89,0.00,,,0.00,Wunderground v.1.15,2013-07-16 16:10:00,
2013-07-16 12:15:00,79.3,75.8,30.30,North,360,0.0,0.0,89,0.00,,,0.00,Wunderground v.1.15,2013-07-16 16:15:00,
2013-07-16 12:25:00,79.3,75.4,30.30,North,360,0.0,0.0,88,0.00,,,0.00,Wunderground v.1.15,2013-07-16 16:25:00,
2013-07-16 12:30:00,79.2,75.7,30.30,North,360,0.0,0.0,89,0.00,,,0.00,Wunderground v.1.15,2013-07-16 16:30:00,
2013-07-16 12:40:00,79.5,76.3,30.30,North,360,0.0,0.0,90,0.00,,,0.00,Wunderground v.1.15,2013-07-16 16:40:00,
2013-07-16 12:45:00,80.0,76.8,30.30,North,360,0.0,0.0,90,0.00,,,0.00,Wunderground v.1.15,2013-07-16 16:45:00,
2013-07-16 12:50:00,80.6,77.1,30.29,North,360,0.0,0.0,89,0.00,,,0.00,Wunderground v.1.15,2013-07-16 16:50:00,
2013-07-16 13:00:00,81.8,76.5,30.29,North,360,0.0,0.0,84,0.00,,,0.00,Wunderground v.1.15,2013-07-16 17:00:00,
2013-07-16 13:09:00,83.2,77.5,30.29,North,360,0.0,0.0,83,0.00,,,0.00,Wunderground v.1.15,2013-07-16 17:09:00,
2013-07-16 13:15:00,83.9,77.4,30.29,North,360,0.0,1.0,81,0.00,,,0.00,Wunderground v.1.15,2013-07-16 17:15:00,
2013-07-16 13:20:00,84.5,78.4,30.28,North,360,0.0,0.0,82,0.00,,,0.00,Wunderground v.1.15,2013-07-16 17:20:00,
2013-07-16 13:30:00,85.0,77.4,30.28,North,360,0.0,0.0,78,0.00,,,0.00,Wunderground v.1.15,2013-07-16 17:30:00,
2013-07-16 13:40:00,85.3,76.9,30.28,North,360,0.0,0.0,76,0.00,,,0.00,Wunderground v.1.15,2013-07-16 17:40:00,
2013-07-16 13:45:00,85.3,77.3,30.28,North,360,0.0,0.0,77,0.00,,,0.00,Wunderground v.1.15,2013-07-16 17:45:00,
2013-07-16 13:50:00,85.4,77.4,30.28,North,360,0.0,0.0,77,0.00,,,0.00,Wunderground v.1.15,2013-07-16 17:50:00,
2013-07-16 14:00:00,86.8,78.3,30.28,North,360,0.0,0.0,76,0.00,,,0.00,Wunderground v.1.15,2013-07-16 18:00:00,
2013-07-16 14:10:00,87.9,78.6,30.27,North,360,0.0,0.0,74,0.00,,,0.00,Wunderground v.1.15,2013-07-16 18:10:00,
2013-07-16 14:20:00,88.2,78.0,30.27,North,360,0.0,0.0,72,0.00,,,0.00,Wunderground v.1.15,2013-07-16 18:20:00,
2013-07-16 14:30:00,88.0,77.0,30.27,North,360,0.0,0.0,70,0.00,,,0.00,Wunderground v.1.15,2013-07-16 18:30:00,
2013-07-16 14:40:00,88.1,77.9,30.27,North,360,0.0,0.0,72,0.00,,,0.00,Wunderground v.1.15,2013-07-16 18:40:00,
2013-07-16 14:49:00,87.9,78.2,30.26,North,360,0.0,0.0,73,0.00,,,0.00,Wunderground v.1.15,2013-07-16 18:49:00,
2013-07-16 14:55:00,87.9,77.7,30.26,North,360,0.0,0.0,72,0.00,,,0.00,Wunderground v.1.15,2013-07-16 18:55:00,
2013-07-16 15:00:00,88.4,76.5,30.26,North,360,0.0,0.0,68,0.00,,,0.00,Wunderground v.1.15,2013-07-16 19:00:00,
2013-07-16 15:10:00,87.8,78.5,30.26,North,360,0.0,0.0,74,0.00,,,0.00,Wunderground v.1.15,2013-07-16 19:10:00,
2013-07-16 15:19:00,88.3,77.7,30.25,North,360,0.0,0.0,71,0.00,,,0.00,Wunderground v.1.15,2013-07-16 19:19:00,
2013-07-16 15:25:00,87.7,78.8,30.25,NNE,17,0.0,0.0,75,0.00,,,0.00,Wunderground v.1.15,2013-07-16 19:25:00,
2013-07-16 15:30:00,87.6,78.3,30.25,NNE,17,0.0,0.0,74,0.00,,,0.00,Wunderground v.1.15,2013-07-16 19:30:00,
2013-07-16 15:40:00,88.3,79.0,30.25,NNE,17,0.0,0.0,74,0.00,,,0.00,Wunderground v.1.15,2013-07-16 19:40:00,
2013-07-16 15:50:00,89.3,78.7,30.25,NNE,17,0.0,0.0,71,0.00,,,0.00,Wunderground v.1.15,2013-07-16 19:50:00,
2013-07-16 15:55:00,89.8,78.3,30.25,NNE,17,0.0,0.0,69,0.00,,,0.00,Wunderground v.1.15,2013-07-16 19:55:00,
2013-07-16 16:00:00,89.5,76.6,30.25,NNE,17,0.0,0.0,66,0.00,,,0.00,Wunderground v.1.15,2013-07-16 20:00:00,
2013-07-16 16:10:00,89.5,77.5,30.25,NNE,17,0.0,0.0,68,0.00,,,0.00,Wunderground v.1.15,2013-07-16 20:10:00,
2013-07-16 16:20:00,88.6,75.8,30.25,NNE,17,0.0,0.0,66,0.00,,,0.00,Wunderground v.1.15,2013-07-16 20:20:00,
2013-07-16 16:25:00,88.8,78.6,30.25,NNE,17,0.0,0.0,72,0.00,,,0.00,Wunderground v.1.15,2013-07-16 20:25:00,
2013-07-16 16:30:00,89.4,78.8,30.25,NNE,17,0.0,0.0,71,0.00,,,0.00,Wunderground v.1.15,2013-07-16 20:30:00,
2013-07-16 16:40:00,89.7,77.3,30.25,NNE,17,0.0,0.0,67,0.00,,,0.00,Wunderground v.1.15,2013-07-16 20:40:00,
2013-07-16 16:50:00,88.6,76.7,30.24,NNE,17,0.0,0.0,68,0.00,,,0.00,Wunderground v.1.15,2013-07-16 20:50:00,
2013-07-16 16:55:00,87.6,77.0,30.24,NNE,17,0.0,0.0,71,0.00,,,0.00,Wunderground v.1.15,2013-07-16 20:55:00,
2013-07-16 17:00:00,87.1,76.1,30.24,NNE,17,0.0,0.0,70,0.00,,,0.00,Wunderground v.1.15,2013-07-16 21:00:00,
2013-07-16 17:10:00,86.5,76.8,30.24,NNE,17,0.0,0.0,73,0.00,,,0.00,Wunderground v.1.15,2013-07-16 21:10:00,
2013-07-16 17:20:00,85.5,77.1,30.24,NNE,17,0.0,0.0,76,0.00,,,0.00,Wunderground v.1.15,2013-07-16 21:20:00,
2013-07-16 17:30:00,84.7,76.3,30.24,NNE,17,0.0,0.0,76,0.00,,,0.00,Wunderground v.1.15,2013-07-16 21:30:00,
2013-07-16 17:35:00,84.4,76.0,30.24,NNE,17,0.0,0.0,76,0.00,,,0.00,Wunderground v.1.15,2013-07-16 21:35:00,
2013-07-16 17:40:00,84.1,75.7,30.24,NNE,17,0.0,0.0,76,0.00,,,0.00,Wunderground v.1.15,2013-07-16 21:40:00,
2013-07-16 17:50:00,83.6,75.2,30.24,NNE,17,0.0,0.0,76,0.00,,,0.00,Wunderground v.1.15,2013-07-16 21:50:00,
2013-07-16 18:00:00,83.0,75.4,30.24,NNE,15,0.0,0.0,78,0.00,,,0.00,Wunderground v.1.15,2013-07-16 22:00:00,
2013-07-16 18:09:00,82.9,75.3,30.24,North,360,0.0,0.0,78,0.00,,,0.00,Wunderground v.1.15,2013-07-16 22:09:00,
2013-07-16 18:15:00,82.8,75.6,30.24,North,360,0.0,0.0,79,0.00,,,0.00,Wunderground v.1.15,2013-07-16 22:15:00,
2013-07-16 18:20:00,82.7,75.5,30.24,North,360,0.0,0.0,79,0.00,,,0.00,Wunderground v.1.15,2013-07-16 22:20:00,
2013-07-16 18:30:00,82.5,75.7,30.24,North,360,0.0,0.0,80,0.00,,,0.00,Wunderground v.1.15,2013-07-16 22:30:00,
2013-07-16 18:39:00,82.1,75.3,30.24,North,360,0.0,0.0,80,0.00,,,0.00,Wunderground v.1.15,2013-07-16 22:39:00,
2013-07-16 18:45:00,82.0,75.2,30.24,North,360,0.0,0.0,80,0.00,,,0.00,Wunderground v.1.15,2013-07-16 22:45:00,
2013-07-16 18:55:00,81.8,75.4,30.24,North,360,0.0,0.0,81,0.00,,,0.00,Wunderground v.1.15,2013-07-16 22:55:00,
2013-07-16 19:00:00,81.7,74.9,30.24,North,360,0.0,0.0,80,0.00,,,0.00,Wunderground v.1.15,2013-07-16 23:00:00,
2013-07-16 19:10:00,81.5,75.1,30.24,North,360,0.0,0.0,81,0.00,,,0.00,Wunderground v.1.15,2013-07-16 23:10:00,
2013-07-16 19:19:00,81.2,75.5,30.24,North,360,0.0,0.0,83,0.00,,,0.00,Wunderground v.1.15,2013-07-16 23:19:00,
2013-07-16 19:25:00,81.1,74.7,30.24,North,360,0.0,0.0,81,0.00,,,0.00,Wunderground v.1.15,2013-07-16 23:25:00,
2013-07-16 19:35:00,81.0,75.7,30.24,North,360,0.0,0.0,84,0.00,,,0.00,Wunderground v.1.15,2013-07-16 23:35:00,
2013-07-16 19:40:00,80.9,75.2,30.24,North,360,0.0,0.0,83,0.00,,,0.00,Wunderground v.1.15,2013-07-16 23:40:00,
2013-07-16 19:50:00,80.8,75.9,30.24,North,360,0.0,0.0,85,0.00,,,0.00,Wunderground v.1.15,2013-07-16 23:50:00,
2013-07-16 19:59:00,80.5,77.0,30.24,North,360,0.0,0.0,89,0.00,,,0.00,Wunderground v.1.15,2013-07-16 23:59:00,
2013-07-16 20:05:00,80.3,76.4,30.24,North,360,0.0,0.0,88,0.00,,,0.00,Wunderground v.1.15,2013-07-17 00:05:00,
2013-07-16 20:15:00,79.9,77.4,30.24,North,360,0.0,0.0,92,0.00,,,0.00,Wunderground v.1.15,2013-07-17 00:15:00,
2013-07-16 20:20:00,79.7,76.8,30.24,North,360,0.0,0.0,91,0.00,,,0.00,Wunderground v.1.15,2013-07-17 00:20:00,
2013-07-16 20:25:00,79.4,77.5,30.24,North,360,0.0,0.0,94,0.00,,,0.00,Wunderground v.1.15,2013-07-17 00:25:00,
2013-07-16 20:30:00,79.1,77.5,30.24,North,360,0.0,0.0,95,0.00,,,0.00,Wunderground v.1.15,2013-07-17 00:30:00,
2013-07-16 20:40:00,78.7,77.5,30.25,North,360,0.0,0.0,96,0.00,,,0.00,Wunderground v.1.15,2013-07-17 00:40:00,
2013-07-16 20:50:00,78.0,76.8,30.25,North,360,0.0,0.0,96,0.00,,,0.00,Wunderground v.1.15,2013-07-17 00:50:00,
2013-07-16 20:55:00,77.7,76.2,30.25,North,360,0.0,0.0,95,0.00,,,0.00,Wunderground v.1.15,2013-07-17 00:55:00,
2013-07-16 21:05:00,77.1,75.9,30.25,North,360,0.0,0.0,96,0.00,,,0.00,Wunderground v.1.15,2013-07-17 01:05:00,
2013-07-16 21:10:00,76.8,75.9,30.25,North,360,0.0,0.0,97,0.00,,,0.00,Wunderground v.1.15,2013-07-17 01:10:00,
2013-07-16 21:20:00,76.3,75.7,30.25,North,360,0.0,0.0,98,0.00,,,0.00,Wunderground v.1.15,2013-07-17 01:20:00,
2013-07-16 21:30:00,75.7,75.4,30.25,North,360,0.0,0.0,99,0.00,,,0.00,Wunderground v.1.15,2013-07-17 01:30:00,
2013-07-16 21:35:00,75.3,75.0,30.25,North,360,0.0,0.0,99,0.00,,,0.00,Wunderground v.1.15,2013-07-17 01:35:00,
2013-07-16 21:40:00,75.1,74.8,30.25,North,360,0.0,0.0,99,0.00,,,0.00,Wunderground v.1.15,2013-07-17 01:40:00,
2013-07-16 21:50:00,74.7,74.7,30.25,North,360,0.0,0.0,100,0.00,,,0.00,Wunderground v.1.15,2013-07-17 01:50:00,
2013-07-16 22:00:00,74.4,74.4,30.25,North,360,0.0,0.0,100,0.00,,,0.00,Wunderground v.1.15,2013-07-17 02:00:00,
2013-07-16 22:10:00,74.1,74.1,30.26,North,360,0.0,0.0,100,0.00,,,0.00,Wunderground v.1.15,2013-07-17 02:10:00,
2013-07-16 22:20:00,73.8,73.8,30.26,North,360,0.0,0.0,100,0.00,,,0.00,Wunderground v.1.15,2013-07-17 02:20:00,
2013-07-16 22:30:00,73.4,73.4,30.26,North,360,0.0,0.0,100,0.00,,,0.00,Wunderground v.1.15,2013-07-17 02:30:00,
2013-07-16 22:40:00,73.2,73.2,30.27,North,360,0.0,0.0,100,0.00,,,0.00,Wunderground v.1.15,2013-07-17 02:40:00,
2013-07-16 22:45:00,73.1,73.1,30.27,North,360,0.0,0.0,100,0.00,,,0.00,Wunderground v.1.15,2013-07-17 02:45:00,
2013-07-16 22:55:00,72.8,72.8,30.27,North,360,0.0,0.0,100,0.00,,,0.00,Wunderground v.1.15,2013-07-17 02:55:00,
2013-07-16 23:00:00,72.6,72.6,30.27,North,360,0.0,0.0,100,0.00,,,0.00,Wunderground v.1.15,2013-07-17 03:00:00,
2013-07-16 23:10:00,72.4,72.4,30.28,North,360,0.0,0.0,100,0.00,,,0.00,Wunderground v.1.15,2013-07-17 03:10:00,
2013-07-16 23:19:00,72.2,72.2,30.28,North,360,0.0,0.0,100,0.00,,,0.00,Wunderground v.1.15,2013-07-17 03:19:00,
2013-07-16 23:25:00,72.1,72.1,30.28,North,360,0.0,0.0,100,0.00,,,0.00,Wunderground v.1.15,2013-07-17 03:25:00,
2013-07-16 23:35:00,71.9,71.9,30.28,North,360,0.0,0.0,100,0.00,,,0.00,Wunderground v.1.15,2013-07-17 03:35:00,
2013-07-16 23:40:00,71.8,71.8,30.28,North,360,0.0,0.0,100,0.00,,,0.00,Wunderground v.1.15,2013-07-17 03:40:00,
2013-07-16 23:50:00,71.6,71.6,30.28,North,360,0.0,0.0,100,0.00,,,0.00,Wunderground v.1.15,2013-07-17 03:50:00,
2013-07-16 23:55:00,71.5,71.5,30.28,North,360,0.0,0.0,100,0.00,,,0.00,Wunderground v.1.15,2013-07-17 03:55:00,